This is the latest recevied weather packets stored in our database for station/object APPOWX. If no packets are shown the sender has not sent any weather packets the latest 10 day(s).
| Time | Temp. | Humidity | Pressure | Rain* | Wind** | Luminosity | Snow |
|---|---|---|---|---|---|---|---|
| 1778257273 | 17.22° C | 38% | 1019.3 hPa | 0 mm | - | - | - |
| 1778257213 | 17.78° C | 39% | 1019.2 hPa | 0 mm | - | - | - |
| 1778257153 | 17.78° C | 37% | 1019.2 hPa | 0 mm | - | - | - |
| 1778257093 | 17.78° C | 42% | 1019.3 hPa | 0 mm | - | - | - |
| 1778257033 | 17.78° C | 40% | 1019.4 hPa | 0 mm | - | - | - |
| 1778256972 | 17.78° C | 42% | 1019.3 hPa | 0 mm | - | - | - |
| 1778256913 | 17.78° C | 39% | 1019.4 hPa | 0 mm | - | - | - |
| 1778256853 | 18.33° C | 38% | 1019.4 hPa | 0 mm | - | - | - |
| 1778256792 | 17.78° C | 40% | 1019.3 hPa | 0 mm | - | - | - |
| 1778256732 | 17.78° C | 38% | 1019.2 hPa | 0 mm | - | - | - |
| 1778256673 | 17.78° C | 36% | 1019.4 hPa | 0 mm | - | - | - |
| 1778256613 | 18.33° C | 34% | 1019.2 hPa | 0 mm | - | - | - |
| 1778256552 | 18.33° C | 38% | 1019.4 hPa | 0 mm | - | - | - |
| 1778256492 | 17.78° C | 38% | 1019.3 hPa | 0 mm | - | - | - |
| 1778256433 | 18.33° C | 41% | 1019.4 hPa | 0 mm | - | - | - |
| 1778256372 | 18.33° C | 36% | 1019.3 hPa | 0 mm | - | - | - |
| 1778256312 | 17.78° C | 39% | 1019.4 hPa | 0 mm | - | - | - |
| 1778256253 | 17.78° C | 37% | 1019.4 hPa | 0 mm | - | - | - |
| 1778256192 | 17.78° C | 37% | 1019.3 hPa | 0 mm | - | - | - |
| 1778256132 | 17.78° C | 38% | 1019.5 hPa | 0 mm | - | - | - |
| 1778256072 | 17.22° C | 47% | 1019.5 hPa | 0 mm | - | - | - |
| 1778256011 | 17.22° C | 39% | 1019.4 hPa | 0 mm | - | - | - |
| 1778255952 | 17.78° C | 37% | 1019.5 hPa | 0 mm | - | - | - |
| 1778255892 | 17.78° C | 34% | 1019.6 hPa | 0 mm | - | - | - |
| 1778255832 | 17.78° C | 38% | 1019.4 hPa | 0 mm | - | - | - |
* Rain latest hour (hover to see other rain measurements)
** Current wind speed in m/s (hover to see current wind gust speed)